Regional Weather Roundup
Issued by NWS

Home | Current Version | Previous Version | Text Only | Print | Product List | Glossary Off
Versions: 1 2 3 4 5 6 7 8 9 10 11 12 13 14 15 16 17 18 19 20 21 22 23 24 25 26 27 28 29 30 31 32 33 34 35 36 37 38 39 40 41 42 43 44 45 46 47 48 49 50

000
ASUS43 KDTX 240301
RWRMI
MICHIGAN HOURLY REGIONAL WEATHER ROUNDUP
NATIONAL WEATHER SERVICE DETROIT/PONTIAC MI
1100 PM EDT MON MAY 23 2016

NOTE: "FAIR" INDICATES FEW OR NO CLOUDS BELOW 12,000 FEET WITH NO
SIGNIFICANT WEATHER AND/OR OBSTRUCTION TO VISIBILITY.

MIZ047>049-052>055-059>063-066>070-074>076-081>083-240400-
SOUTHEAST LOWER MICHIGAN

CITY           SKY/WX    TMP DP  RH WIND       PRES   REMARKS
ADRIAN         CLEAR     60  43  53 CALM      30.02R
ALMA           CLEAR     56  46  68 S5        29.98S
ANN ARBOR      CLEAR     51  47  86 CALM      30.02R
BAD AXE        CLEAR     52  44  75 S3        29.99S
CARO           CLEAR     49  42  76 CALM      29.98S
DETROIT CITY   CLEAR     63  42  46 S3        30.01R
DETROIT        PTCLDY    62  48  60 S3        30.03R
FLINT          CLEAR     62  39  42 S5        30.00R
GROSSE ILE     CLEAR     59  55  88 S3        30.01R
HILLSDALE      CLEAR     57  39  51 CALM      30.03S
HOWELL         CLEAR     63  32  31 CALM      30.01R

CITY           SKY/WX    TMP DP  RH WIND       PRES   REMARKS
JACKSON        CLEAR     56  41  57 SW3       30.02R
LAMBERTVILLE   CLEAR     57  49  74 CALM      30.03R
LANSING        CLEAR     60  44  55 CALM      30.01R
LAPEER         FAIR      53  43  70 CALM      30.00S
MASON          CLEAR     64  36  36 SE3       30.01R
MONROE         CLEAR     58  52  78 CALM      30.02R
PONTIAC        CLEAR     64  44  48 SW5       30.01R
PORT HOPE        N/A     60  40  47 S7        29.96S
PORT HURON     CLEAR     55  48  76 CALM      30.01R
TRI CITIES     CLEAR     66  39  37 S8        29.98R
MIDLAND        FAIR      56  46  69 CALM      29.97R
TROY           CLEAR     66  40  38 SW6       30.03S
SAGINAW HB     CLEAR     59  37  44 S6        29.98S
$$
MIZ043>046-050>051-056>058-064>065-071>073-077>080-240400-
SOUTHWEST LOWER MICHIGAN

CITY           SKY/WX    TMP DP  RH WIND       PRES   REMARKS
BATTLE CREEK   CLEAR     63  36  36 SE7       30.01R
BENTON HARBOR  CLEAR     57  47  69 SE6       29.96S
BIG RAPIDS     CLEAR     59  44  58 CALM      29.97R
COLDWATER      CLEAR     55  39  54 CALM      30.02R
FREMONT        FAIR      59  43  55 SE3       29.95S
HOLLAND        CLEAR     59  45  59 SE3       29.96S
GRAND RAPIDS   CLEAR     59  47  64 SE7       29.98S
IONIA          FAIR      60  41  49 CALM      29.98F
KALAMAZOO      CLEAR     64  36  35 SE5       30.00S
LUDINGTON      CLEAR     51  40  66 CALM      29.94R
MARSHALL       CLEAR     61  38  43 CALM      30.01R
MOUNT PLEASANT CLEAR     64  42  45 CALM      29.97R
MUSKEGON       PTCLDY    58  41  53 CALM      29.95S
SOUTH HAVEN    CLEAR     57  47  70 CALM      29.97R
$$
MIZ016>042-240400-
NORTHERN LOWER MICHIGAN

CITY           SKY/WX    TMP DP  RH WIND       PRES   REMARKS
ALPENA         CLEAR     53  47  79 CALM      29.94R
BEAVER ISLAND  CLEAR     65  32  29 SW13G20   29.91R
BELLAIRE       CLEAR     54  48  80 CALM      29.94S
CADILLAC       CLEAR     53  39  59 CALM      29.97S
CHARLEVOIX     CLEAR     60  41  50 SE3       29.96R
FRANKFORT      CLEAR     65  37  35 CALM      29.91S
GAYLORD        CLEAR     61  45  55 CALM      29.96S
GRAYLING       CLEAR     61  44  54 W5        29.98R
HARBOR SPRINGS CLEAR     55  41  58 N3        29.93S
HOUGHTON LAKE  CLEAR     61  50  67 SW3       29.98R
MANISTEE       CLEAR     54  36  50 E6        29.93F
OSCODA         CLEAR     60  43  53 SW7       29.95R
PELLSTON       CLEAR     51  38  60 CALM      29.93S
ROGERS CITY    CLEAR     48  44  86 CALM      29.94S
TRAVERSE CITY  CLEAR     66  36  32 CALM      29.92S
$$
MIZ007>008-015-240400-
EASTERN UPPER MICHIGAN

CITY           SKY/WX    TMP DP  RH WIND       PRES   REMARKS
KINROSS          N/A     55  39  54 S5        29.93S
MACKINAC ISLAN CLEAR     55  41  58 S8        29.93R
NEWBERRY       CLEAR     53  39  58 S5        29.91R
S. S. MARIE    CLEAR     59  39  47 CALM      29.93R
MUNISING         N/A     63  38  39 S7        29.86R
$$
MIZ004>006-011>014-085-240400-
CENTRAL UPPER MICHIGAN

CITY           SKY/WX    TMP DP  RH WIND       PRES   REMARKS
MANISTIQUE     CLEAR     53  43  68 SW3       29.89R
ESCANABA       CLEAR     61  43  51 S7        29.88R
MENOMINEE      CLEAR     63  43  48 SW6       29.88R
SAWYER-GWINN   CLOUDY    64  44  47 S13       29.86R
$$
MIZ001>003-009>011-084-240400-
WESTERN UPPER MICHIGAN

CITY           SKY/WX    TMP DP  RH WIND       PRES   REMARKS
IRON MOUNTAIN  CLOUDY    66  48  52 SE6       29.84R
HOUGHTON       CLOUDY    63  59  87 NW17      29.81R
COPPER HARBOR    N/A     52  49  89 N9        29.79R
IRONWOOD       CLOUDY    64  63  94 CALM      29.80F
$$

ABBREVIATIONS USED IN REMARKS
   TC - TEMPERATURE IN CELSIUS
  WCI - WIND CHILL INDEX
   HX - HEAT INDEX
  VSB - VISIBILITY




USA.gov is the U.S. government's official web portal to all federal, state and local government web resources and services.